Погода в Бирзаи

Погода в Бирзаи : погода сейчас, прогноз погоды и архив. Всё, что Вы хотите узнать о погоде в Бирзаи!

Поиск расширенной информации на нашем сайте:

Другие новости

Новости СМИ2

Главная страница сайта

Новости сайта

03.07.2017

Напоминаем, что на нашем специализированном сайте Метеоцентр.Азия вы можете получить высокодетализированные автоматические прогнозы погоды по пунктам России, СНГ и мира в авиационном формате (включающие направление и скорость ветра, видимость, явления погоды, количество и форму облачности, нижнюю и верхнюю границу облачности).


Погода в Бирзаи - сегодня

Время (UTC), дата Ветер
(°,м/с) 
Видим.   Явления Облачность Т
(°С)
Тd
(°С)
f(%) Тe
(°С)
Pmin
(гПа)
dP
(гПа)
Po
(мм)
O2
(г/м3)
Тmin Tmax R s Состояние
почвы
06 18.07.18 060 (СВ) 3-4{07}  19000 м    3/0 верхняя 
[Ci sp]
+23 +16.3 66 +34  1008.9  0.6  751  275  +18.1        сухая 
09 18.07.18 080 (В) 4-8{08}  18000 м    3/3 1000 м 
[Cu hum]
+27.2 +15.9 50 +38  1008.2  -0.6  751  271           
12 18.07.18 080 (В) 4-7{10}  19000 м    8/8 1500 м 
[Cu med, cong]
+28 +15.2 46 +37  1007.6  -0.6  750  271           
15 18.07.18 060 (СВ) 3-8{08}  19000 м    4/4 1500 м 
[Cu med, cong]
+29.3 +14.7 41 +38  1007  -0.6  750  269           
18 18.07.18 тихо () -2{09}  18000 м    1/1 1500 м 
[Sc]
+26.4 +15.6 51 +36  1007.4  0.4  750  272    +29.5       
21 18.07.18 тихо () -1{03}  18000 м    1/1 1500 м 
[Sc]
+20.2 +14.4 69 +28  1008.3  0.7  751  278           
00 19.07.18 060 (СВ) 1-3{04}  20000 м    ясно 
+18.4 +13.6 74 +26  1008.3  751  281           
03 19.07.18 тихо () -2{04}  20000 м    3/0 средняя 
[Ac trans]
+16.3 +13.4 83 +22  1008.7  0.3  751  282           
06 19.07.18 040 (СВ) 1-4{04}  19000 м    9/0 средняя 
[Ac As]
+19.4 +15.5 78 +31  1008.6  751  279  +15.9        сухая 
09 19.07.18 010 (С) 2-6{06}  19000 м    10/5 600 м кучево-дожд., средняя 
[Cb calv|Ac As]
+21.6 +17.2 76 +34  1008.3  -0.3  751  276           
12 19.07.18 010 (С) 2-6{07}  13000 м  {ливн. осадки}  10/4 600 м кучево-дожд., средняя 
[Cb calv|Ac As]
+21.8 +18 79 +36  1008.2  -0.1  751  276      0.2     
15 19.07.18 330 (СЗ) 3-8{08}  17000 м  {ливн. осадки}  9/3 600 м кучево-дожд., средняя 
[Cb calv|Ac As]
+23.9 +18.9 74 +40  1008  -0.1  751  273           
18 19.07.18 350 (С) 1-4{08}  20000 м  {ливн. осадки}  8/0 средняя, верхняя 
[Ac trans|Cs]
+20.7 +15.9 74 +31  1008.3  0.2  751  277    +24.2  0.2     
21 19.07.18 310 (СЗ) 1-3{05}  20000 м    4/0 средняя, верхняя 
[Ac trans|Ci fib]
+18.3 +16.1 87 +31  1008.1  -0.2  751  279           
00 20.07.18 300 (СЗ) 1-3{03}  19000 м    3/0 верхняя 
[Ci fib]
+16.5 +15.1 91 +27  1008  -0.2  751  282           
03 20.07.18 тихо () -0{03}  4400 м  дымка  4/0 средняя, верхняя 
[Ac trans|Ci fib]
+15.5 +14.8 96 +24  1007.8  -0.2  750  282           
06 20.07.18 тихо () -2{03}  19000 м    3/1 1000 м верхняя 
[Cu hum|Ci fib]
+20.8 +17.2 80 +34  1007.6  -0.1  750  276  +15        сухая 
09 20.07.18 090 (В) 1-3{04}  17000 м    3/3 1000 м 
[Cu hum]
+25.2 +17.2 61 +38  1007  -0.5  750  272           
12 20.07.18 360 (С) 1-6{06}  18000 м    3/3 1000 м 
[Cu hum]
+28.2 +15.5 46 +38  1006.2  -0.7  749  270           
15 20.07.18 320 (СЗ) 2-4{06}  19000 м    4/4 600 м кучево-дожд. 
[Cb calv]
+28 +15.7 47 +38  1005.4  -0.8  749  270           
18 20.07.18 тихо () -1{05}  19000 м    4/1 600 м средняя 
[Cu hum|Ac As]
+25.8 +17.2 59 +39  1006.1  0.6  749  271    +29       
21 20.07.18 300 (СЗ) 1-4{04}  19000 м    3/0 средняя 
[Ac trans]
+20.8 +15.9 74 +31  1006.6  0.4  750  277           
00 21.07.18 290 (З) 2-4{04}  12000 м    ясно 
+18 +15.8 87 +29  1006.7  0.1  750  280           
03 21.07.18 310 (СЗ) 2-4{05}  2200 м  в посл. час туман  10/10 60 м 
[St]
+18.3 +17.8 97 +33  1007.6  0.9  750  278           
06 21.07.18 290 (З) 2-4{05}  16000 м  {туман}  6/6 300 м 
[St]
+20.3 +17.7 85 +34  1007.9  0.3  750  277  +17.7        сухая 
Время (UTC), дата Ветер
(°,м/с) 
Видим.   Явления Облачность Т
(°С)
Тd
(°С)
f(%) Тe
(°С)
Pmin
(гПа)
dP
(гПа)
Po
(мм)
O2
(г/м3)
Тmin Tmax R s Состояние
почвы

Для получения пояснительной информации подведите курсор к названию столбца.

ПОГОДА в Бирзаи - архив

Всё, что Вы хотите узнать о погоде в Бирзаи - удобно и подробно!

Выберите нужную дату (начиная с 1 января 2015* года) и нажмите кнопку "Найти".
Будут отображены архивные сводки погоды по пункту Бирзаи, начиная с указанной даты.


Отображать данные в формате CSV (для использования в таблицах Excel)


Внимание! Наш архив погоды предназначен исключительно для личного некоммерческого использования в познавательных целях. Если Вам необходимы официальные справки о состоянии погоды (для производственных, юридических, коммерческих и т.п. целей), обращайтесь в органы Росгидромета.

*Примечание: данная дата относится к архиву по метеостанциям СССР (Россия, СНГ, Балтия).
Архив по метеостанциям Зарубежной Европы и Азии (кроме Китая) хранится 10 дней, по другим регионам земного шара (Китай, Африка, Америка, Австралия, Океания) - 1 день.

Бирзаи - район местоположения метеостанции


Название, широта, долгота, высота метеостанции:
Бирзаи 56.2°ш. 24.8°д. 62 м над ур. моря [Литва]

Дополнительная информация

В oтличие oт бoльшинства пoгoдных сайтoв мы публикуем пoдрoбную метеoинфoрмацию в детальнoм прoфессиoнальнoм фoрмате.

Характеристики температуры и влажнoсти вoздуха измеряются на высoте 2 м в тени вдали oт зданий и деревьев.
Скoрoсть ветра измеряется на высoте 10 м (на урoвне рoста челoвека скoрoсть ветра ниже в 1.5-2 раза). Если метеoстанция нахoдится в гoрoде или в лесу, тo скoрoсть ветра занижена на 2-4 м/с пo сравнению с oткрытым местoм. Скoрoсть ветра над акватoриями крупных рек и oзёр, а также на вершинах хoлмoв на 2-5 м/с выше, чем в oбычных услoвиях.
Атмoсфернoе давление в разных тoчках местнoсти мoжет значительнo oтличаться oт давления на метеoстанции, в зависимoсти oт услoвий рельефа (при пoдъёме на 10 м давление пoнижается примернo на 1 мм рт.ст.).